QPF
0.00 0.00 0.00 0.00 0.00 0.00 0.00 0.00 0.00 0.00 0.00 0.00 0.00 0.00 0.00 0.00 0.00 0.00 0.00 0.00 0.00 0.00 0.00 0.00 0.00 0.01 0.02 0.00 0.00 0.00 0.00 0.00 0.00 0.02 0.00 0.00 0.00 0.00 0.00 0.00 0.00 0.00 0.04 0.10
0.00 0.00 0.00 0.00 0.00 0.00 0.00 0.00 0.00 0.00 0.00 0.00 0.00 0.00 0.00 0.00 0.00 0.00 0.00 0.00 0.00 0.00 0.00 0.00 0.00 0.00 0.00 0.00 0.00 0.00 0.00 0.00 0.00 0.00 0.00 0.00 0.00 0.00 0.00 0.00 0.00 0.01 0.03 0.06
0.00 0.00 0.00 0.00 0.00 0.00 0.00 0.00 0.00 0.00 0.00 0.00 0.00 0.00 0.00 0.01 0.00 0.00 0.00 0.00 0.00 0.00 0.00 0.00 0.00 0.00 0.00 0.00 0.00 0.00 0.00 0.04 0.02 0.00 0.00 0.01 0.00 0.00 0.01 0.00 0.00 0.00 0.04 0.07
0.00 0.00 0.00 0.00 0.00 0.00 0.00 0.00 0.00 0.00 0.00 0.00 0.00 0.01 0.03 0.06 0.06 0.01 0.00 0.00 0.00 0.00 0.00 0.00 0.00 0.00 0.00 0.00 0.00 0.00 0.00 0.04 0.05 0.04 0.04 0.18 0.10 0.03 0.00 0.00 0.00 0.01 0.07 0.21
0.00 0.00 0.00 0.00 0.00 0.00 0.00 0.00 0.00 0.00 0.00 0.00 0.00 0.00 0.01 0.03 0.07 0.04 0.00 0.00 0.00 0.00 0.00 0.00 0.00 0.00 0.00 0.00 0.00 0.00 0.00 0.04 0.13 0.14 0.11 0.24 0.11 0.06 0.05 0.02 0.03 0.02 0.05 0.06
0.00 0.00 0.00 0.00 0.00 0.00 0.00 0.00 0.00 0.00 0.00 0.00 0.00 0.00 0.00 0.00 0.04 0.01 0.00 0.00 0.00 0.00 0.00 0.00 0.00 0.00 0.00 0.00 0.00 0.00 0.00 0.02 0.03 0.03 0.04 0.09 0.21 0.38 0.49 0.18 0.28 0.10 0.02 0.00
0.00 0.00 0.00 0.00 0.00 0.00 0.00 0.00 0.00 0.00 0.00 0.00 0.00 0.00 0.01 0.00 0.00 0.00 0.00 0.00 0.00 0.00 0.00 0.00 0.00 0.00 0.00 0.00 0.00 0.00 0.00 0.00 0.00 0.00 0.00 0.01 0.05 0.29 0.15 0.08 0.15 0.14 0.09 0.04
0.00 0.00 0.00 0.00 0.00 0.00 0.00 0.00 0.00 0.00 0.00 0.00 0.00 0.00 0.00 0.00 0.00 0.00 0.00 0.00 0.00 0.00 0.00 0.00 0.00 0.00 0.00 0.00 0.00 0.00 0.00 0.00 0.00 0.00 0.00 0.01 0.11 0.20 0.24 0.14 0.04 0.04 0.12 0.12
0.00 0.00 0.00 0.00 0.00 0.00 0.00 0.00 0.00 0.00 0.00 0.00 0.00 0.00 0.01 0.01 0.00 0.00 0.00 0.00 0.00 0.00 0.00 0.00 0.00 0.00 0.00 0.00 0.00 0.00 0.00 0.00 0.00 0.00 0.00 0.01 0.10 0.20 0.18 0.16 0.09 0.06 0.07 0.08
0.00 0.00 0.00 0.00 0.00 0.00 0.00 0.00 0.00 0.00 0.00 0.00 0.00 0.00 0.03 0.02 0.00 0.00 0.00 0.00 0.00 0.00 0.00 0.00 0.00 0.00 0.00 0.00 0.00 0.00 0.00 0.00 0.00 0.00 0.00 0.00 0.01 0.05 0.09 0.14 0.18 0.16 0.10 0.08
0.00 0.00 0.00 0.00 0.00 0.00 0.00 0.00 0.00 0.00 0.00 0.00 0.00 0.00 0.00 0.01 0.00 0.00 0.00 0.00 0.00 0.00 0.00 0.00 0.00 0.00 0.00 0.00 0.00 0.00 0.00 0.00 0.00 0.00 0.00 0.00 0.00 0.00 0.00 0.02 0.08 0.13 0.13 0.10
0.00 0.00 0.00 0.00 0.00 0.00 0.00 0.00 0.00 0.00 0.00 0.00 0.00 0.00 0.00 0.00 0.00 0.00 0.00 0.00 0.00 0.00 0.00 0.00 0.00 0.00 0.00 0.00 0.00 0.00 0.00 0.00 0.00 0.00 0.00 0.00 0.00 0.00 0.00 0.00 0.00 0.00 0.05 0.12
0.00 0.00 0.00 0.00 0.00 0.00 0.00 0.00 0.00 0.00 0.00 0.00 0.00 0.00 0.00 0.00 0.00 0.00 0.00 0.00 0.00 0.00 0.00 0.00 0.00 0.00 0.00 0.00 0.00 0.00 0.00 0.00 0.00 0.00 0.00 0.00 0.00 0.00 0.00 0.00 0.00 0.01 0.02 0.02
0.00 0.00 0.00 0.00 0.00 0.00 0.00 0.00 0.00 0.00 0.00 0.00 0.00 0.00 0.00 0.00 0.00 0.00 0.00 0.00 0.00 0.00 0.00 0.00 0.00 0.00 0.00 0.00 0.00 0.00 0.00 0.00 0.00 0.00 0.00 0.01 0.00 0.00 0.00 0.00 0.01 0.03 0.02 0.01
0.00 0.00 0.00 0.00 0.00 0.00 0.00 0.00 0.00 0.00 0.00 0.00 0.00 0.00 0.00 0.00 0.00 0.00 0.00 0.00 0.00 0.00 0.00 0.00 0.00 0.00 0.00 0.00 0.00 0.00 0.00 0.00 0.00 0.00 0.00 0.03 0.04 0.03 0.04 0.02 0.02 0.02 0.03 0.03
0.00 0.00 0.00 0.00 0.00 0.00 0.00 0.00 0.00 0.00 0.00 0.00 0.00 0.00 0.00 0.00 0.00 0.00 0.00 0.00 0.00 0.00 0.00 0.00 0.00 0.00 0.00 0.00 0.00 0.00 0.00 0.00 0.00 0.00 0.00 0.00 0.01 0.01 0.02 0.02 0.02 0.04 0.05 0.06
0.00 0.00 0.00 0.00 0.00 0.00 0.00 0.00 0.00 0.00 0.00 0.00 0.00 0.00 0.00 0.00 0.00 0.00 0.00 0.00 0.00 0.00 0.00 0.00 0.00 0.00 0.00 0.00 0.00 0.00 0.00 0.00 0.00 0.00 0.00 0.00 0.00 0.00 0.00 0.00 0.00 0.01 0.02 0.03
0.00 0.00 0.00 0.00 0.00 0.00 0.00 0.00 0.00 0.00 0.00 0.00 0.00 0.00 0.00 0.00 0.00 0.00 0.00 0.00 0.00 0.00 0.00 0.00 0.00 0.00 0.00 0.00 0.00 0.00 0.00 0.00 0.00 0.00 0.00 0.00 0.00 0.00 0.00 0.00 0.00 0.00 0.00 0.00
0.00 0.00 0.00 0.00 0.00 0.00 0.00 0.00 0.00 0.00 0.00 0.00 0.00 0.00 0.00 0.00 0.00 0.00 0.00 0.00 0.00 0.00 0.00 0.00 0.00 0.00 0.00 0.00 0.00 0.00 0.00 0.00 0.00 0.00 0.00 0.00 0.00 0.00 0.00 0.00 0.00 0.00 0.00 0.00
0.00 0.00 0.00 0.00 0.00 0.00 0.00 0.00 0.00 0.00 0.00 0.00 0.00 0.00 0.00 0.00 0.00 0.00 0.00 0.00 0.00 0.00 0.00 0.00 0.00 0.00 0.00 0.00 0.00 0.00 0.00 0.00 0.00 0.00 0.00 0.00 0.00 0.00 0.00 0.00 0.00 0.00 0.00 0.00
0.00 0.00 0.00 0.00 0.00 0.00 0.00 0.00 0.00 0.00 0.00 0.00 0.00 0.00 0.00 0.00 0.00 0.00 0.00 0.00 0.00 0.00 0.00 0.00 0.00 0.00 0.00 0.00 0.00 0.00 0.00 0.00 0.00 0.00 0.00 0.00 0.00 0.00 0.00 0.01 0.01 0.00 0.00 0.00
0.00 0.00 0.00 0.00 0.00 0.00 0.00 0.00 0.00 0.00 0.00 0.00 0.00 0.00 0.00 0.00 0.00 0.00 0.00 0.00 0.00 0.00 0.00 0.00 0.00 0.00 0.00 0.00 0.00 0.00 0.00 0.00 0.00 0.00 0.00 0.00 0.00 0.00 0.00 0.00 0.00 0.00 0.00 0.00
0.00 0.00 0.00 0.00 0.00 0.00 0.00 0.00 0.00 0.00 0.00 0.00 0.00 0.00 0.00 0.00 0.00 0.00 0.01 0.01 0.00 0.00 0.00 0.00 0.00 0.00 0.00 0.00 0.00 0.00 0.00 0.00 0.00 0.00 0.00 0.00 0.00 0.00 0.00 0.00 0.00 0.00 0.00 0.00
0.00 0.00 0.00 0.00 0.00 0.00 0.00 0.00 0.00 0.00 0.00 0.00 0.00 0.00 0.00 0.00 0.01 0.00 0.00 0.00 0.00 0.00 0.00 0.00 0.00 0.00 0.00 0.00 0.00 0.00 0.00 0.00 0.00 0.00 0.00 0.00 0.00 0.00 0.00 0.00 0.00 0.00 0.00 0.00
0.00 0.00 0.00 0.00 0.00 0.00 0.00 0.00 0.00 0.00 0.00 0.00 0.00 0.00 0.00 0.00 0.00 0.00 0.00 0.00 0.00 0.00 0.00 0.00 0.00 0.00 0.00 0.00 0.00 0.00 0.00 0.00 0.00 0.00 0.00 0.00 0.00 0.00 0.00 0.00 0.00 0.00 0.00 0.00
0.00 0.00 0.00 0.00 0.00 0.00 0.00 0.00 0.00 0.00 0.00 0.00 0.00 0.00 0.00 0.00 0.00 0.00 0.00 0.00 0.00 0.00 0.00 0.00 0.00 0.00 0.00 0.00 0.00 0.00 0.00 0.00 0.00 0.00 0.00 0.00 0.00 0.00 0.00 0.00 0.00 0.00 0.00 0.00
MSLP
1002.02 1001.68 1000.73 999.64 999.06 999.51 999.74 999.43 999.26 999.13 999.61 1000.39 1000.33 1000.25 1000.57 1001.42 1001.67 1001.83 1001.63 1002.16 1003.51 1003.83 1003.72 1003.49 1003.46 1005.12 1006.19 1005.65 1007.68 1007.43 1008.35 1009.89 1010.79 1011.29 1011.83 1012.10 1012.05 1012.11 1012.21 1012.28 1012.09 1012.54 1013.97 1014.08
1001.21 1000.74 999.85 999.27 999.22 999.63 999.67 999.53 999.09 998.62 999.27 1000.30 1000.66 1000.94 1001.48 1002.21 1002.57 1002.52 1002.56 1002.54 1002.72 1003.22 1003.38 1003.48 1003.55 1004.37 1006.39 1006.63 1007.25 1007.04 1008.36 1009.71 1010.60 1011.07 1011.27 1011.26 1011.50 1011.58 1011.70 1011.64 1011.44 1011.70 1012.67 1013.60
1000.10 999.40 999.36 998.89 999.11 999.51 999.48 999.10 998.56 998.70 999.25 999.95 1000.82 1002.65 1004.73 1006.23 1006.31 1003.94 1003.28 1003.04 1003.15 1003.50 1003.61 1003.51 1003.66 1003.94 1004.73 1005.63 1006.29 1007.21 1008.25 1009.29 1010.27 1010.81 1011.14 1011.07 1011.20 1011.19 1011.36 1011.43 1011.39 1011.43 1011.16 1011.87
999.58 998.61 998.61 998.98 999.17 999.15 998.58 998.39 998.38 998.99 999.66 999.99 1000.81 1004.32 1008.01 1009.31 1008.57 1005.77 1003.37 1003.29 1003.36 1003.64 1003.84 1003.93 1003.74 1004.19 1004.53 1005.21 1006.06 1007.14 1008.23 1009.12 1010.12 1010.99 1011.45 1011.52 1011.14 1011.09 1010.86 1010.72 1010.81 1010.61 1011.11 1010.53
999.19 998.71 998.71 999.02 998.90 998.97 998.66 998.57 999.10 999.17 999.50 999.95 1002.13 1005.11 1008.43 1009.38 1007.51 1006.18 1004.20 1003.42 1003.63 1003.68 1003.95 1004.38 1004.36 1004.50 1004.59 1005.20 1006.03 1007.11 1008.06 1009.05 1009.97 1010.80 1011.07 1011.13 1011.41 1011.22 1010.73 1010.35 1010.42 1010.69 1010.94 1011.03
998.76 998.61 998.53 998.68 998.74 998.71 998.86 999.02 999.02 999.00 999.36 999.90 1002.21 1005.18 1007.20 1008.49 1006.52 1005.57 1003.72 1003.57 1003.39 1003.76 1004.17 1004.74 1005.20 1005.24 1005.58 1005.98 1006.47 1007.24 1008.13 1008.99 1009.78 1010.24 1010.65 1010.86 1010.89 1010.96 1010.90 1010.89 1011.71 1012.27 1011.45 1011.29
999.10 998.47 998.47 998.67 998.44 998.28 998.79 998.73 998.19 998.31 998.67 999.87 1001.41 1003.19 1004.41 1004.62 1004.62 1003.04 1003.09 1003.26 1003.30 1003.57 1004.07 1004.95 1005.55 1005.89 1006.32 1006.72 1007.15 1007.80 1008.59 1009.27 1009.68 1010.09 1010.38 1010.49 1010.45 1010.52 1010.36 1010.65 1011.76 1010.99 1013.10 1011.71
998.24 998.25 998.02 998.29 998.41 998.06 998.02 997.73 997.65 997.88 998.61 1000.73 1000.89 1002.41 1003.81 1004.08 1003.37 1003.04 1002.67 1002.85 1003.13 1003.61 1004.37 1005.07 1005.94 1006.59 1006.91 1007.32 1007.74 1008.22 1008.87 1009.44 1009.85 1010.22 1010.44 1010.48 1010.30 1010.11 1010.23 1010.35 1010.91 1011.96 1012.10 1011.89
996.82 996.85 996.66 997.45 997.84 998.24 997.79 997.48 997.24 998.07 998.19 999.55 1002.19 1004.27 1005.48 1005.95 1004.24 1003.18 1002.97 1002.91 1003.19 1003.59 1004.19 1005.04 1005.72 1006.47 1007.05 1007.57 1008.11 1008.60 1009.21 1009.71 1010.14 1010.26 1010.78 1010.96 1010.98 1010.29 1010.39 1010.35 1010.67 1011.46 1011.65 1011.37
996.97 996.63 996.69 997.02 997.49 997.45 997.40 997.50 997.27 997.24 999.15 1001.70 1004.27 1006.22 1008.78 1008.31 1004.63 1003.04 1002.64 1002.86 1003.28 1003.77 1004.39 1005.18 1005.90 1006.61 1007.06 1007.52 1008.18 1008.66 1009.18 1009.60 1009.92 1010.49 1010.74 1011.16 1011.48 1010.98 1010.63 1011.13 1011.42 1011.62 1011.66 1011.58
997.33 997.36 998.55 998.11 997.34 997.12 997.14 997.51 997.42 997.74 1000.33 1002.86 1006.07 1007.44 1007.15 1005.08 1003.60 1002.03 1002.38 1002.47 1002.85 1003.48 1004.38 1005.41 1006.22 1006.85 1007.27 1007.83 1008.42 1008.88 1009.25 1009.45 1009.76 1010.19 1010.84 1011.23 1011.66 1011.75 1011.92 1011.82 1012.13 1012.04 1011.97 1011.66
997.45 996.90 998.44 998.10 997.18 997.08 996.89 997.39 997.73 998.42 1000.41 1001.84 1002.28 1005.16 1003.67 1003.81 1002.11 1002.09 1002.34 1002.53 1002.96 1003.64 1004.72 1005.74 1006.41 1007.05 1007.62 1008.17 1008.71 1009.03 1009.32 1009.39 1009.39 1009.85 1010.71 1011.16 1011.55 1011.92 1012.34 1012.68 1012.38 1012.31 1012.36 1011.63
997.52 997.58 998.37 999.70 998.40 997.97 997.70 997.31 997.25 998.69 998.52 999.82 1000.96 1002.73 1001.37 1001.44 1001.83 1002.21 1002.46 1003.44 1004.12 1004.63 1005.32 1005.87 1006.78 1007.55 1008.00 1008.63 1009.10 1009.27 1009.40 1009.41 1009.51 1009.46 1009.96 1010.43 1011.02 1011.43 1011.68 1011.78 1011.71 1011.67 1011.38 1010.83
997.80 997.77 998.15 999.94 1001.78 1000.77 999.28 997.89 997.53 997.86 998.11 998.83 999.81 999.93 1000.39 1001.09 1002.05 1002.31 1002.68 1003.45 1004.12 1004.91 1005.74 1006.90 1007.21 1007.95 1008.70 1009.10 1009.31 1009.40 1009.60 1009.70 1009.81 1009.92 1009.96 1010.12 1010.63 1010.87 1010.97 1010.99 1011.01 1010.88 1010.78 1010.46
998.07 998.34 999.12 1001.10 1002.21 1002.15 1000.63 999.48 998.34 998.33 998.62 998.95 999.08 999.52 1000.06 1000.90 1001.73 1002.31 1002.98 1003.51 1004.40 1005.19 1006.18 1006.70 1007.55 1008.42 1009.05 1009.47 1009.69 1009.86 1009.97 1010.08 1010.25 1010.28 1010.37 1010.46 1010.53 1010.42 1010.55 1010.48 1010.35 1010.29 1010.25 1010.12
998.47 998.80 999.88 1001.13 1001.57 1001.71 1001.03 999.76 998.78 998.36 998.30 998.39 998.85 999.72 1000.56 1001.03 1001.77 1002.28 1002.90 1003.72 1004.84 1005.82 1006.48 1007.13 1008.09 1008.78 1009.23 1009.63 1009.89 1010.15 1010.29 1010.43 1010.49 1010.51 1010.56 1010.54 1010.45 1010.32 1010.35 1010.26 1010.21 1010.01 1009.89 1009.93
998.89 999.15 999.89 1001.60 1002.73 1003.11 1002.41 1001.06 999.14 998.46 998.17 998.54 998.95 999.85 1000.66 1001.60 1002.27 1002.60 1003.23 1003.73 1004.87 1005.88 1006.62 1007.29 1008.00 1008.75 1009.33 1009.69 1009.97 1010.21 1010.50 1010.62 1010.72 1010.76 1010.66 1010.58 1010.58 1010.51 1010.40 1010.22 1010.15 1010.10 1009.97 1009.84
999.51 1000.45 1002.02 1003.92 1004.53 1005.07 1002.59 1001.33 1000.89 999.44 998.84 998.64 999.04 999.49 1000.37 1001.41 1002.35 1002.81 1003.25 1003.70 1004.77 1005.62 1006.37 1007.20 1007.68 1008.27 1008.80 1008.99 1009.58 1009.99 1010.16 1010.41 1010.56 1010.64 1010.60 1010.54 1010.53 1010.56 1010.57 1010.51 1010.38 1010.22 1010.12 1010.01
999.79 1001.22 1002.92 1004.71 1006.30 1006.58 1003.37 1002.31 1001.70 1000.53 999.15 998.92 998.94 999.83 1000.85 1001.70 1002.33 1002.86 1003.12 1003.54 1004.17 1005.07 1006.19 1007.01 1007.41 1007.84 1008.61 1008.93 1009.18 1009.57 1009.85 1010.02 1010.13 1010.28 1010.30 1010.24 1010.30 1010.41 1010.50 1010.45 1010.41 1010.31 1010.18 1009.93
1001.47 1001.45 1002.83 1004.71 1005.60 1005.70 1002.79 1001.23 1000.09 999.81 999.49 999.07 999.34 1000.03 1001.03 1001.98 1002.60 1002.69 1003.69 1003.81 1005.05 1005.54 1005.98 1006.78 1007.19 1007.57 1007.92 1008.59 1009.06 1009.42 1009.75 1009.89 1009.94 1010.00 1010.14 1010.20 1010.18 1010.28 1010.31 1010.25 1010.19 1010.02 1009.96 1009.79
1004.71 1004.12 1003.06 1002.98 1003.50 1002.90 1001.90 1000.20 999.75 1000.17 1000.87 1000.15 1000.25 1000.68 1001.32 1002.29 1003.14 1004.40 1004.85 1003.84 1005.32 1005.84 1006.22 1006.96 1007.52 1007.91 1008.20 1008.74 1009.17 1009.59 1009.79 1010.03 1010.15 1010.19 1010.31 1010.35 1010.29 1010.27 1010.17 1009.94 1009.79 1009.73 1009.56 1009.35
1007.29 1007.68 1003.22 1001.92 1001.44 1001.64 1001.59 1000.52 1000.45 1001.18 1000.89 1000.86 1001.17 1001.37 1002.52 1003.39 1003.48 1003.89 1004.15 1004.73 1004.93 1005.87 1006.86 1007.57 1008.02 1008.44 1008.85 1009.15 1009.46 1009.88 1010.32 1010.53 1010.56 1010.64 1010.64 1010.61 1010.46 1010.24 1009.86 1009.74 1009.49 1009.33 1009.23 1009.07
1008.07 1006.41 1003.43 1001.74 1001.58 1001.53 1001.20 1001.33 1001.53 1001.34 1001.32 1001.70 1002.06 1002.30 1002.64 1003.31 1004.19 1004.95 1007.52 1003.98 1006.63 1006.44 1007.51 1008.11 1008.64 1009.02 1009.36 1009.55 1009.88 1010.16 1010.41 1010.63 1010.71 1010.83 1010.88 1010.87 1010.69 1010.36 1010.01 1009.69 1009.30 1009.00 1008.68 1008.37
1004.09 1001.56 1001.97 1001.93 1001.33 1001.33 1001.40 1001.70 1002.23 1002.17 1001.89 1001.93 1002.38 1002.97 1003.51 1004.05 1004.95 1005.40 1005.56 1006.19 1006.58 1007.52 1008.38 1008.93 1009.30 1009.56 1009.81 1010.00 1010.10 1010.27 1010.39 1010.46 1010.57 1010.62 1010.63 1010.54 1010.33 1010.01 1009.65 1009.16 1008.71 1008.26 1007.85 1007.55
1001.50 1001.89 1001.83 1002.04 1001.79 1001.65 1001.69 1002.06 1002.28 1002.53 1002.79 1002.80 1003.19 1003.72 1004.27 1004.79 1005.41 1006.05 1006.65 1007.29 1007.90 1008.55 1009.04 1009.53 1009.97 1010.16 1010.26 1010.32 1010.42 1010.46 1010.49 1010.47 1010.47 1010.45 1010.36 1010.21 1009.88 1009.40 1008.90 1008.56 1008.12 1007.65 1007.18 1006.92
1001.46 1001.37 1001.53 1001.86 1002.31 1002.46 1002.43 1002.55 1002.70 1003.06 1003.29 1003.52 1003.91 1004.51 1005.24 1005.89 1006.45 1006.97 1007.60 1008.22 1008.79 1009.40 1009.76 1010.00 1010.23 1010.32 1010.33 1010.48 1010.46 1010.39 1010.30 1010.24 1010.21 1010.17 1009.97 1009.81 1009.62 1009.12 1008.66 1008.29 1007.64 1007.18 1006.71 1006.38
Thickness
5844 5826 5823 5853 5876 5866 5859 5854 5850 5867 5873 5855 5854 5863 5867 5868 5867 5860 5864 5861 5840 5841 5854 5858 5854 5842 5815 5830 5812 5815 5819 5809 5804 5800 5795 5793 5794 5797 5800 5801 5802 5799 5784 5788
5834 5821 5857 5877 5874 5861 5856 5847 5852 5877 5876 5858 5854 5856 5866 5865 5860 5859 5856 5856 5856 5852 5849 5852 5854 5851 5832 5832 5828 5826 5818 5809 5804 5801 5800 5801 5798 5799 5800 5802 5804 5804 5796 5785
5829 5854 5871 5873 5860 5848 5851 5849 5860 5859 5868 5870 5858 5832 5815 5803 5809 5851 5856 5857 5854 5846 5843 5849 5849 5849 5847 5840 5833 5825 5820 5813 5806 5803 5800 5799 5799 5798 5795 5796 5799 5803 5806 5799
5847 5878 5869 5856 5848 5858 5844 5879 5871 5857 5843 5822 5859 5789 5768 5762 5780 5816 5851 5850 5847 5845 5846 5848 5849 5846 5845 5840 5839 5831 5823 5814 5805 5798 5791 5789 5788 5785 5792 5797 5800 5804 5798 5773
5842 5855 5853 5843 5851 5865 5852 5876 5858 5856 5847 5849 5824 5796 5768 5773 5784 5801 5839 5847 5845 5848 5847 5842 5845 5847 5849 5846 5839 5831 5823 5814 5805 5796 5791 5785 5782 5786 5791 5796 5797 5800 5798 5798
5857 5881 5870 5860 5868 5870 5872 5857 5856 5858 5851 5822 5812 5780 5757 5767 5794 5802 5844 5845 5848 5848 5847 5843 5842 5844 5839 5840 5836 5829 5819 5812 5806 5799 5795 5789 5784 5781 5781 5781 5774 5775 5787 5790
5840 5851 5869 5872 5853 5872 5859 5842 5818 5817 5822 5815 5850 5816 5802 5820 5828 5848 5843 5844 5849 5851 5848 5840 5835 5833 5832 5829 5827 5821 5812 5802 5801 5796 5791 5789 5788 5783 5779 5776 5767 5757 5759 5782
5821 5812 5855 5870 5853 5849 5853 5857 5830 5796 5807 5799 5854 5792 5810 5840 5856 5858 5855 5852 5852 5849 5845 5839 5832 5828 5826 5823 5820 5816 5808 5800 5796 5791 5787 5785 5783 5779 5772 5773 5772 5762 5760 5771
5844 5840 5885 5875 5873 5863 5850 5840 5879 5841 5858 5839 5825 5811 5799 5796 5837 5848 5844 5846 5845 5846 5844 5838 5835 5830 5826 5821 5816 5811 5804 5797 5791 5788 5781 5776 5770 5768 5761 5764 5766 5763 5765 5777
5860 5839 5876 5877 5879 5877 5863 5877 5841 5860 5803 5780 5790 5774 5731 5751 5812 5840 5840 5838 5842 5845 5841 5836 5831 5826 5825 5822 5816 5812 5805 5797 5792 5785 5779 5772 5763 5759 5752 5748 5753 5752 5757 5765
5864 5854 5820 5857 5855 5850 5858 5846 5860 5864 5814 5748 5720 5733 5775 5794 5820 5844 5842 5845 5845 5844 5840 5833 5828 5825 5822 5818 5812 5806 5802 5797 5792 5785 5775 5768 5760 5755 5748 5745 5742 5748 5753 5759
5864 5864 5815 5843 5879 5887 5877 5857 5857 5826 5780 5806 5812 5739 5821 5822 5850 5849 5842 5847 5847 5843 5837 5830 5825 5821 5815 5811 5805 5801 5798 5794 5793 5786 5775 5767 5762 5754 5746 5741 5743 5745 5747 5753
5861 5843 5817 5797 5844 5868 5855 5868 5872 5850 5858 5825 5801 5773 5847 5851 5844 5844 5837 5835 5835 5833 5830 5827 5819 5812 5809 5804 5799 5796 5794 5792 5789 5787 5781 5773 5765 5760 5756 5755 5754 5755 5757 5761
5863 5849 5842 5796 5778 5814 5827 5854 5863 5854 5834 5831 5817 5828 5835 5832 5827 5836 5836 5834 5832 5829 5822 5814 5809 5806 5800 5798 5795 5793 5790 5789 5785 5780 5778 5774 5766 5763 5762 5761 5762 5761 5761 5764
5853 5827 5843 5807 5793 5803 5825 5833 5849 5837 5838 5820 5834 5833 5833 5831 5826 5832 5836 5834 5826 5820 5813 5811 5804 5796 5793 5789 5788 5786 5785 5783 5780 5776 5772 5768 5767 5766 5764 5763 5764 5766 5766 5767
5851 5822 5827 5804 5821 5819 5816 5839 5849 5848 5846 5844 5841 5828 5841 5842 5839 5832 5830 5825 5813 5810 5806 5805 5796 5790 5786 5782 5780 5779 5777 5775 5775 5770 5767 5766 5764 5764 5761 5762 5762 5764 5765 5765
5836 5834 5825 5795 5801 5790 5773 5812 5843 5848 5851 5841 5819 5825 5834 5825 5823 5823 5822 5820 5810 5804 5801 5796 5792 5787 5781 5777 5777 5772 5771 5771 5767 5763 5763 5762 5759 5757 5757 5758 5759 5758 5759 5761
5836 5815 5797 5763 5769 5732 5804 5825 5820 5828 5841 5848 5842 5840 5830 5824 5826 5825 5826 5816 5808 5803 5800 5793 5789 5785 5782 5781 5775 5772 5771 5767 5764 5761 5759 5758 5756 5753 5752 5751 5751 5752 5752 5753
5846 5811 5779 5750 5714 5729 5786 5797 5794 5796 5820 5843 5839 5830 5826 5825 5821 5812 5824 5819 5812 5806 5799 5793 5789 5784 5778 5773 5772 5768 5764 5762 5761 5757 5756 5756 5754 5749 5747 5745 5745 5746 5746 5747
5821 5822 5794 5752 5733 5727 5790 5810 5839 5836 5797 5838 5835 5826 5817 5815 5787 5802 5811 5810 5803 5800 5797 5789 5786 5781 5775 5769 5767 5760 5756 5754 5752 5753 5752 5750 5749 5745 5742 5742 5741 5742 5742 5742
5764 5766 5781 5782 5764 5776 5801 5833 5838 5782 5782 5826 5827 5823 5816 5797 5802 5799 5783 5784 5796 5791 5788 5783 5777 5772 5770 5766 5759 5751 5748 5744 5747 5745 5742 5740 5739 5737 5737 5738 5737 5737 5736 5737
5714 5708 5771 5790 5779 5762 5814 5817 5793 5801 5819 5821 5819 5818 5798 5795 5800 5805 5803 5790 5788 5780 5777 5772 5764 5760 5759 5755 5750 5743 5736 5737 5737 5735 5732 5730 5730 5730 5731 5730 5732 5732 5731 5730
5696 5730 5764 5789 5779 5805 5815 5806 5812 5816 5810 5809 5805 5809 5809 5796 5785 5786 5738 5767 5768 5770 5763 5761 5754 5748 5746 5744 5738 5731 5730 5728 5726 5723 5720 5718 5720 5721 5723 5722 5722 5722 5724 5725
5755 5804 5783 5784 5799 5797 5798 5805 5803 5804 5805 5805 5805 5799 5796 5785 5773 5776 5777 5765 5763 5756 5749 5745 5740 5735 5731 5730 5727 5724 5722 5721 5718 5714 5713 5712 5711 5713 5715 5718 5720 5721 5722 5721
5790 5786 5775 5773 5787 5788 5792 5793 5794 5795 5797 5793 5791 5786 5780 5776 5767 5761 5755 5750 5746 5741 5738 5733 5725 5720 5718 5718 5714 5712 5710 5709 5707 5706 5705 5705 5705 5707 5710 5712 5714 5717 5721 5720
5784 5774 5762 5758 5770 5771 5775 5784 5788 5781 5779 5780 5774 5768 5766 5759 5752 5748 5741 5738 5732 5726 5722 5718 5714 5710 5709 5706 5703 5701 5701 5699 5697 5695 5696 5697 5696 5699 5701 5701 5705 5711 5711 5712